Location: Bothwell
(42.3833°S, 147.0000°E)
Time: 06:19:17
(UTC+11:00)

PicSat - Visible Passes

Search period start: 30 January 2023 00:00
Search period end: 09 February 2023 00:00
Orbit: 394 x 402 km, 97.4° (Epoch: 28 January)

Date Brightness Start Highest point End Pass type
(mag) Time Alt. Az. Time Alt. Az. Time Alt. Az.
30 Jan ? 01:07:00 10° S 01:07:40 15° S 01:07:40 15° S visible
01 Feb ? 00:56:38 10° S 00:57:09 14° S 00:57:09 14° S visible
02 Feb ? 01:37:48 10° SSW 01:37:53 10° SSW 01:37:53 10° SSW visible
03 Feb ? 00:45:39 10° SSE 00:45:54 12° SSE 00:45:54 12° SSE visible
04 Feb ? 01:26:07 10° SSW 01:26:17 11° SSW 01:26:17 11° SSW visible
06 Feb ? 01:13:52 10° S 01:13:58 11° S 01:13:58 11° S visible
